Rogers City, MI

10:21 AM EDT on July 28, 2017 (GMT -0400)
Presque Isle County

Weather History for KPZQ - May, 2013

Change the Weather History Date:

Wednesday, May 15, 2013

  Actual Average (KAPN) Record (KAPN)
Temperature  
Mean Temperature 58 °F -  
Max Temperature 71 °F 64 °F 92 °F (1962)
Min Temperature 45 °F 40 °F 23 °F (1925)
Degree Days  
Heating Degree Days 7    
Growing Degree Days 8 (Base 50)    
Moisture  
Dew Point 41 °F    
Average Humidity 56    
Maximum Humidity 85    
Minimum Humidity 26    
Precipitation  
Precipitation 0.00 in - - ()
Sea Level Pressure  
Sea Level Pressure 29.63 in    
Wind  
Wind Speed 12 mph (WSW)    
Max Wind Speed 22 mph    
Max Gust Speed 33 mph    
Visibility 10 miles    
Events      
Averages and records for this station are not official NWS values.
T = Trace of Precipitation, MM = Missing Value Source: NWS Daily Summary

Daily Weather History Graph

Daily Weather History Graph

Search for Another Location

Airport or City:

Trip Planner

Search our weather history database for the weather conditions in past years. The results will help you decide how hot, cold, wet, or windy it might be!

Date:

Astronomy

May. 15, 2013 Rise Set
Actual Time 6:04 AM EDT 8:59 PM EDT
Civil Twilight 5:30 AM EDT 9:33 PM EDT
Nautical Twilight 4:46 AM EDT 10:18 PM EDT
Astronomical Twilight 3:53 AM EDT 11:10 PM EDT
Moon 10:42 AM EDT (5/15) 12:42 AM EDT (5/15)
Length of Visible Light 16h 03m
Length of Day
14h 54m
Waxing Crescent, 26% of the Moon is Illuminated
May 15
Waxing Crescent
May 18
First Quarter
May 25
Full
May 31
Last Quarter
Jun 8
New

Hourly Weather History & Observations

Time (EDT) Temp. Windchill Dew Point Humidity Pressure Visibility Wind Dir Wind Speed Gust Speed Precip Events Conditions
12:15 AM 45.7 °F 40.6 °F 40.1 °F 81% 29.70 in 10.0 mi SSE 10.4 mph - N/A   Mostly Cloudy
12:35 AM 45.5 °F 40.3 °F 40.1 °F 81% 29.68 in 10.0 mi SE 10.4 mph 16.1 mph N/A   Mostly Cloudy
12:55 AM 45.9 °F 41.2 °F 40.1 °F 80% 29.66 in 10.0 mi SE 9.2 mph 17.3 mph N/A   Scattered Clouds
1:15 AM 45.7 °F 40.6 °F 40.1 °F 81% 29.65 in 10.0 mi SE 10.4 mph - N/A   Mostly Cloudy
1:35 AM 45.9 °F 40.8 °F 40.1 °F 80% 29.63 in 10.0 mi SE 10.4 mph - N/A   Scattered Clouds
1:55 AM 45.7 °F 40.6 °F 40.1 °F 81% 29.62 in 10.0 mi SE 10.4 mph - N/A   Scattered Clouds
2:15 AM 46.2 °F 41.2 °F 40.3 °F 80% 29.60 in 10.0 mi SE 10.4 mph - N/A   Mostly Cloudy
2:35 AM 46.6 °F - 40.6 °F 80% 29.58 in 10.0 mi SSE 9.2 mph - N/A   Mostly Cloudy
2:54 AM 46.8 °F - 40.6 °F 79% 29.56 in 10.0 mi SSE 8.1 mph 16.1 mph N/A   Mostly Cloudy
3:15 AM 46.8 °F - 41.0 °F 80% 29.53 in 10.0 mi SE 13.8 mph - N/A   Mostly Cloudy
3:34 AM 46.4 °F 40.7 °F 41.0 °F 81% 29.52 in 10.0 mi SE 12.7 mph 20.7 mph N/A   Scattered Clouds
3:55 AM 46.4 °F 40.7 °F 41.0 °F 81% 29.50 in 7.0 mi SE 12.7 mph - N/A   Clear
4:15 AM 46.2 °F 40.8 °F 41.2 °F 83% 29.49 in 7.0 mi SSE 11.5 mph - N/A   Clear
4:34 AM 46.4 °F 40.7 °F 41.4 °F 83% 29.47 in 7.0 mi SSE 12.7 mph 16.1 mph N/A   Clear
4:55 AM 46.6 °F - 41.7 °F 83% 29.47 in 7.0 mi South 8.1 mph - N/A   Clear
5:04 AM 46.8 °F - 41.9 °F 83% 29.47 in 10.0 mi South 12.7 mph - N/A   Clear
5:35 AM 47.3 °F - 41.9 °F 82% 29.46 in 10.0 mi South 10.4 mph 18.4 mph N/A   Clear
5:55 AM 46.8 °F - 41.9 °F 83% 29.46 in 10.0 mi South 8.1 mph - N/A   Clear
6:14 AM 46.8 °F - 41.9 °F 83% 29.47 in 7.0 mi South 4.6 mph - N/A   Clear
6:35 AM 46.4 °F 44.3 °F 41.9 °F 84% 29.48 in 7.0 mi SSW 4.6 mph - N/A   Clear
6:55 AM 46.8 °F - 42.4 °F 85% 29.49 in 7.0 mi WSW 4.6 mph - N/A   Clear
7:15 AM 48.7 °F - 43.9 °F 83% 29.49 in 7.0 mi West 5.8 mph - N/A   Clear
7:35 AM 54.3 °F - 46.4 °F 75% 29.50 in 10.0 mi WNW 12.7 mph 18.4 mph N/A   Clear
7:55 AM 55.6 °F - 46.6 °F 72% 29.52 in 10.0 mi WNW 13.8 mph 19.6 mph N/A   Clear
8:15 AM 57.4 °F - 46.6 °F 67% 29.52 in 10.0 mi WNW 12.7 mph 18.4 mph N/A   Clear
8:35 AM 57.9 °F - 45.0 °F 62% 29.54 in 10.0 mi WNW 16.1 mph 20.7 mph N/A   Clear
8:55 AM 57.2 °F - 43.7 °F 61% 29.55 in 10.0 mi WNW 21.9 mph 29.9 mph N/A   Clear
9:15 AM 56.7 °F - 43.5 °F 61% 29.56 in 10.0 mi WNW 16.1 mph 31.1 mph N/A   Clear
9:35 AM 57.2 °F - 43.9 °F 61% 29.57 in 10.0 mi WNW 21.9 mph 33.4 mph N/A   Clear
9:55 AM 57.2 °F - 44.4 °F 62% 29.58 in 10.0 mi NW 18.4 mph 28.8 mph N/A   Clear
10:15 AM 58.1 °F - 45.9 °F 64% 29.60 in 10.0 mi NW 16.1 mph 27.6 mph N/A   Clear
10:34 AM 58.5 °F - 46.2 °F 64% 29.60 in 10.0 mi WNW 19.6 mph 28.8 mph N/A   Mostly Cloudy
10:55 AM 59.5 °F - 46.6 °F 62% 29.61 in 10.0 mi NW 18.4 mph 24.2 mph N/A   Scattered Clouds
11:15 AM 60.1 °F - 45.9 °F 59% 29.63 in 10.0 mi WNW 19.6 mph 27.6 mph N/A   Scattered Clouds
11:35 AM 59.7 °F - 45.1 °F 59% 29.64 in 10.0 mi NW 20.7 mph 33.4 mph N/A   Scattered Clouds
11:55 AM 60.8 °F - 45.3 °F 57% 29.65 in 10.0 mi NW 11.5 mph 29.9 mph N/A   Clear
12:15 PM 61.9 °F - 46.0 °F 56% 29.66 in 10.0 mi NW 13.8 mph 21.9 mph N/A   Clear
12:35 PM 62.8 °F - 46.2 °F 55% 29.67 in 10.0 mi NW 10.4 mph 24.2 mph N/A   Clear
12:55 PM 64.4 °F - 47.1 °F 53% 29.67 in 10.0 mi NNW 9.2 mph 20.7 mph N/A   Clear
1:14 PM 63.9 °F - 47.3 °F 55% 29.67 in 10.0 mi NNW 11.5 mph 18.4 mph N/A   Clear
1:35 PM 63.0 °F - 46.9 °F 56% 29.67 in 10.0 mi North 11.5 mph 19.6 mph N/A   Clear
1:55 PM 69.1 °F - 45.9 °F 43% 29.67 in 10.0 mi West 15.0 mph 25.3 mph N/A   Scattered Clouds
2:15 PM 68.9 °F - 43.7 °F 40% 29.68 in 10.0 mi West 18.4 mph 26.5 mph N/A   Scattered Clouds
2:35 PM 70.0 °F - 42.3 °F 37% 29.67 in 10.0 mi West 17.3 mph 24.2 mph N/A   Scattered Clouds
2:55 PM 70.7 °F - 41.0 °F 34% 29.68 in 10.0 mi West 17.3 mph 27.6 mph N/A   Clear
3:15 PM 70.2 °F - 39.9 °F 33% 29.68 in 10.0 mi West 20.7 mph 28.8 mph N/A   Clear
3:35 PM 71.4 °F - 40.5 °F 33% 29.68 in 10.0 mi West 20.7 mph 27.6 mph N/A   Clear
3:55 PM 71.6 °F - 38.5 °F 30% 29.68 in 10.0 mi WNW 19.6 mph 27.6 mph N/A   Clear
4:15 PM 71.8 °F - 38.7 °F 30% 29.67 in 10.0 mi West 15.0 mph 25.3 mph N/A   Clear
4:34 PM 71.8 °F - 38.7 °F 30% 29.68 in 10.0 mi West 15.0 mph 27.6 mph N/A   Clear
4:55 PM 71.8 °F - 39.2 °F 31% 29.68 in 10.0 mi West 13.8 mph 24.2 mph N/A   Clear
5:15 PM 71.2 °F - 39.7 °F 32% 29.68 in 10.0 mi West 17.3 mph 25.3 mph N/A   Clear
5:34 PM 71.1 °F - 39.9 °F 32% 29.69 in 10.0 mi West 15.0 mph 25.3 mph N/A   Clear
5:55 PM 70.9 °F - 39.0 °F 31% 29.69 in 10.0 mi West 13.8 mph 28.8 mph N/A   Clear
6:14 PM 70.9 °F - 39.6 °F 32% 29.69 in 10.0 mi West 10.4 mph 20.7 mph N/A   Clear
6:35 PM 70.3 °F - 38.5 °F 31% 29.70 in 10.0 mi West 15.0 mph 24.2 mph N/A   Clear
6:54 PM 70.3 °F - 38.5 °F 31% 29.70 in 10.0 mi West 13.8 mph 26.5 mph N/A   Clear
7:15 PM 70.2 °F - 37.9 °F 31% 29.71 in 10.0 mi West 12.7 mph 25.3 mph N/A   Clear
7:35 PM 69.8 °F - 37.4 °F 31% 29.72 in 10.0 mi WNW 6.9 mph 20.7 mph N/A   Clear
7:54 PM 68.9 °F - 32.4 °F 26% 29.73 in 10.0 mi WNW 12.7 mph 19.6 mph N/A   Clear
8:15 PM 68.0 °F - 31.8 °F 26% 29.73 in 10.0 mi WNW 10.4 mph 16.1 mph N/A   Clear
8:35 PM 67.1 °F - 31.8 °F 27% 29.74 in 10.0 mi West 8.1 mph 17.3 mph N/A   Clear
8:55 PM 65.8 °F - 32.0 °F 28% 29.74 in 10.0 mi West 5.8 mph 17.3 mph N/A   Clear
9:15 PM 62.8 °F - 34.0 °F 34% 29.74 in 10.0 mi WSW 5.8 mph - N/A   Clear
9:34 PM 60.8 °F - 34.7 °F 38% 29.75 in 10.0 mi WSW 5.8 mph - N/A   Clear
9:55 PM 58.5 °F - 36.0 °F 43% 29.75 in 10.0 mi SW 4.6 mph - N/A   Clear
10:15 PM 57.9 °F - 37.6 °F 47% 29.75 in 10.0 mi SW 6.9 mph - N/A   Clear
10:34 PM 58.6 °F - 36.9 °F 44% 29.75 in 10.0 mi WSW 9.2 mph - N/A   Clear
10:55 PM 59.0 °F - 36.1 °F 42% 29.74 in 10.0 mi SW 8.1 mph - N/A   Clear
11:15 PM 58.1 °F - 36.1 °F 44% 29.74 in 10.0 mi WSW 9.2 mph - N/A   Clear
11:35 PM 58.3 °F - 36.0 °F 43% 29.74 in 10.0 mi WSW 5.8 mph - N/A   Clear
11:55 PM 57.2 °F - 36.5 °F 46% 29.74 in 10.0 mi SW 5.8 mph - N/A   Clear